PERSEUS M2

导读

PERSEUS M2是独立国家联合体(CIS)于2014年6月19日08:00发射的人造卫星,隶属于以古希腊英雄珀尔修斯命名的相关航天项目。作为该系列任务中的M2型号卫星,它的入轨拓展了CIS在近地空间的观测能力,为空间环境监测、对地观测等领域提供了数据支撑,是CIS近年来商业航天发射序列中一颗具备实用价值的在轨卫星,延续了PERSEUS系列的任务目标。

Basic Information
目录编号:
40037
目录名称:
PERSEUS M2
国际标识:
2014-033AD
轨道中心:
EARTH
卫星名称:
PERSEUS M2
卫星全名:
--
卫星状态:
在轨 (已飞行4460 天)
发射日期:
2014-06-19 UTC
国别 :
俄罗斯(独联体) (CIS)
星等 :
--
Orbit Information
数据来源 国际轨道数据
星历时间: 2026-09-05T00:16:36+0800
3小时前
查看轨道信息
半长轴: 6958.314km
偏心率: 0.0012784
轨道倾角: 98.003°
近地点辐角 41.079°
升交点赤经 199.874°
平近点角 319.140°
近地点: 571.281km
远地点: 589.073km
周期: 96.275分钟
每日圈数: 14.95708
Detailed Information
使用方式:
暂无
2D Orbit Map
3D Orbit Map
Orbit Altitude Analysis Chart
Orbit Inclination Analysis Chart
Orbit Comprehensive Analysis Chart
View Comprehensive Chart
Conjunction Data List
Event ID Objects TCA Miss Dist (km) Collision Risk Probability Collision Risk Index (CRI) Action
CDM_260906-070504-003705-646322
2026-09-06T
07:05:24+0000
1.071 km
极远距离
2.129719E-5 中风险 0.62
CDM_260903-033704-003706-479625
2026-09-03T
03:37:52+0000
1.719 km
极远距离
4.331226E-6 低风险 0.48
CDM_260903-020204-003705-645823
2026-09-03T
02:02:44+0000
2.607 km
极远距离
1.598453E-6 低风险 0.39